CZ-4C R/B, 52258

Orbit data source: Space-Track

CZ-4C R/B, 52258 is space debris in SSO originally from a launch on Fri, 15 Apr 2022 UTC launched from the Taiyaun Space Center, China (TSC). Debris objects in space refer to the collection of defunct objects orbiting the Earth. Examples of debris include non-operational satellites, rocket bodies, and fragments generated from explosions, collisions, or faulty payload assembly.

Loading next visibility...
Identifier
52258, 2022-039B
Orbit
SSO
Country
Flag of CNCN / PRC
Related business
Manufacturer
SAST
Mission
Spacecraft
Bus & Motor
CZ-4 STAGE 3, Unknown motor
Mass
~1,000 kg wet, ~1,000 kg dry
Launch date (UTC)
2022-04-15 (4 years ago)
Launch vehicle
Unknown
Launch site
Taiyaun Space Center, China (TSC)
Object type
Payload
Rocket body
Debris
Shape & HBR
Cyl, 2.5 m
Radar Cross Section
14.536 m², Large (>1 m²)

Expand to show TLE details & history
Last TLE update: 2 days ago

TLE from 2 days ago
0 CZ-4C R/B
1 52258U 22039B   26171.36818542  .00001664  00000-0  11107-3 0  9992
2 52258  98.2407 215.3095 0113565  63.4600 297.8213 15.03481624228344
Epoch: 2026-06-20T08:50Z
TLE epoch observation values (Epoch: 2026-06-20T08:50:11.220Z)
Latitude
-0°
Longitude
174.17894°
Altitude
523.157 km
Speed
7.621 km/s
True Right ascension
14h 21m 14s
True Declination
0° 00' 00"
Sunlit
Object was in full shadow at epoch
Visualization orbit readout
Latitude
Unknown
Longitude
Unknown
Altitude
Unknown
Speed
Unknown
Apparent Right ascension
Unknown
Apparent Declination
Unknown
Sunlit
N/A
Visualization observer readout
Local Sidereal Time
21:36:24
Azimuth
Unknown
Elevation
Unknown
Doppler factor
Unknown
Orbital elements
Apogee altitude
631.911 km
Perigee altitude
474.479 km
Semi-major axis
6,931.332 km
Eccentricity
0.01136
Inclination
98.2407°
RAAN
215.3095°
Arg. of periapsis
63.46°
True anomaly
296.66277°
Mean anomaly
297.8213°
Eccentric anomaly
297.2428°
Mean motion
3.76113 °/min
Orbital period
95.72 mins
BSTAR
0.00011107
Loading maneuver chart data...
Computing Atmospheric mass density...
Loading historical data...
Loading historical data...
Loading historical data...
Loading historical data...
Loading historical data...
Loading historical data...
Loading historical data...
Other satellites on launch #39 in the year 2022 (2022-04-15 UTC)

Documentation

Showing up to 5 results
|